, CA

(GMT )
Vandenberg AFB

Weather History for KVBG - November, 2012

Change the Weather History Date:

Thursday, November 22, 2012

  Actual Average Record
Temperature  
Mean Temperature 59 °F -  
Max Temperature 68 °F 61 °F 81 °F (2015)
Min Temperature 50 °F 45 °F 39 °F (1999)
Degree Days  
Heating Degree Days 6    
Growing Degree Days 9 (Base 50)    
Moisture  
Dew Point 49 °F    
Average Humidity 79    
Maximum Humidity 94    
Minimum Humidity 45    
Precipitation  
Precipitation 0.00 in - - ()
Sea Level Pressure  
Sea Level Pressure 30.09 in    
Wind  
Wind Speed 6 mph (NNE)    
Max Wind Speed 14 mph    
Max Gust Speed -    
Visibility 9 miles    
Events      
Averages and records for this station are not official NWS values.
T = Trace of Precipitation, MM = Missing Value Source: NWS Daily Summary

Daily Weather History Graph

Daily Weather History Graph

Search for Another Location

Airport or City:

Trip Planner

Search our weather history database for the weather conditions in past years. The results will help you decide how hot, cold, wet, or windy it might be!

Date:

Astronomy

Nov. 22, 2012 Rise Set
Actual Time 6:43 AM PST 4:53 PM PST
Civil Twilight 6:16 AM PST 5:20 PM PST
Nautical Twilight 5:45 AM PST 5:51 PM PST
Astronomical Twilight 5:15 AM PST 6:21 PM PST
Moon 1:30 PM PST 1:20 AM PST
Length of Visible Light 11h 04m
Length of Day
10h 09m
Waxing Gibbous, 72% of the Moon is Illuminated
Nov 22
Waxing Gibbous
Nov 28
Full
Dec 6
Last Quarter
Dec 13
New
Dec 19
First Quarter

Hourly Weather History & Observations

Time (PST) Temp. Dew Point Humidity Pressure Visibility Wind Dir Wind Speed Gust Speed Precip Events Conditions
12:07 AM 53.6 °F 51.8 °F 94% 30.11 in 5.0 mi NE 3.5 mph - N/A   Overcast
12:22 AM 53.6 °F 51.8 °F 94% 30.10 in 6.0 mi North 4.6 mph - N/A   Mostly Cloudy
12:30 AM 53.6 °F 51.8 °F 94% 30.10 in 8.0 mi North 4.6 mph - N/A   Scattered Clouds
12:55 AM 53.1 °F 50.0 °F 89% 30.07 in 10.0 mi North 4.6 mph - N/A   Clear
1:55 AM 53.1 °F 48.9 °F 86% 30.07 in 10.0 mi North 10.4 mph - N/A   Clear
2:55 AM 54.0 °F 46.9 °F 77% 30.06 in 10.0 mi North 8.1 mph - N/A   Clear
3:55 AM 52.0 °F 46.0 °F 80% 30.05 in 10.0 mi NNW 9.2 mph - N/A   Clear
4:55 AM 53.1 °F 46.0 °F 77% 30.05 in 10.0 mi North 9.2 mph - N/A   Clear
5:55 AM 50.0 °F 46.9 °F 89% 30.07 in 8.0 mi NNW 9.2 mph - N/A   Clear
6:55 AM 52.0 °F 46.9 °F 83% 30.09 in 7.0 mi North 6.9 mph - N/A   Clear
7:55 AM 52.0 °F 48.9 °F 89% 30.11 in 10.0 mi SE 5.8 mph - N/A   Clear
8:55 AM 57.9 °F 50.0 °F 75% 30.12 in 10.0 mi ESE 4.6 mph - N/A   Clear
9:55 AM 62.1 °F 48.9 °F 62% 30.12 in 10.0 mi Calm Calm - N/A   Clear
10:55 AM 66.0 °F 50.0 °F 56% 30.11 in 10.0 mi WSW 4.6 mph - N/A   Clear
11:55 AM 66.9 °F 48.9 °F 52% 30.09 in 10.0 mi Variable 5.8 mph - N/A   Clear
12:55 PM 68.0 °F 46.9 °F 47% 30.07 in 10.0 mi NNW 10.4 mph - N/A   Clear
1:55 PM 68.0 °F 46.0 °F 45% 30.06 in 10.0 mi NW 13.8 mph - N/A   Clear
2:55 PM 64.9 °F 52.0 °F 63% 30.06 in 10.0 mi NW 11.5 mph - N/A   Clear
3:55 PM 61.0 °F 53.1 °F 75% 30.07 in 10.0 mi NW 12.7 mph - N/A   Clear
4:55 PM 57.0 °F 52.0 °F 83% 30.08 in 10.0 mi WNW 4.6 mph - N/A   Clear
5:55 PM 54.0 °F 50.0 °F 86% 30.10 in 10.0 mi Calm Calm - N/A   Clear
6:55 PM 51.1 °F 48.9 °F 92% 30.09 in 7.0 mi ESE 5.8 mph - N/A   Clear
7:55 PM 52.0 °F 48.9 °F 89% 30.10 in 9.0 mi East 6.9 mph - N/A   Clear
8:55 PM 53.1 °F 50.0 °F 89% 30.11 in 10.0 mi East 5.8 mph - N/A   Clear
9:55 PM 52.0 °F 48.9 °F 89% 30.11 in 10.0 mi East 5.8 mph - N/A   Clear
10:55 PM 50.0 °F 48.0 °F 93% 30.11 in 10.0 mi East 5.8 mph - N/A   Clear
11:55 PM 51.1 °F 48.0 °F 89% 30.11 in 10.0 mi East 8.1 mph - N/A   Clear